Simultaneous Nadir Overpasses (SNOs) Predictions

Prediction of SNOs between GOES-16 and TERRA Satellite Orbit:

Table of predicted SNOs for the next 14.0 days since TLE Epoch: 7/30/2022
Index Date Time (GOES-16) GOES-16 Lat,Lon TERRA Lat,Lon Distance(km) Time Diff (sec)
1 07/31/2022 03:16:44 0.03, -75.20 0.17, -74.56 72.33 80
2 08/02/2022 03:04:31 0.03, -75.21 0.81, -71.62 408.89 80
3 08/02/2022 15:23:06 -0.03, -75.22 0.28, -76.78 176.20 80
4 08/04/2022 15:13:32 -0.02, -75.24 -0.30, -73.82 160.99 80
5 08/05/2022 03:34:56 0.02, -75.24 -0.80, -79.02 430.56 80
6 08/06/2022 14:58:39 -0.02, -75.26 -0.94, -70.88 498.16 80
7 08/07/2022 03:22:43 0.01, -75.25 -0.16, -76.07 93.07 80
8 08/09/2022 03:07:49 -0.00, -75.27 0.42, -73.12 244.37 80
9 08/09/2022 15:31:45 0.00, -75.29 0.61, -78.29 340.67 80
10 08/11/2022 15:19:31 0.00, -75.31 0.03, -75.33 3.69 80
